STARLINK-11080, 60727

Orbit data source: Space-Track

STARLINK-11080, 60727 is a payload satellite owned by SpaceX/Seattle (US) in LEO that was launched on Wed, 28 Aug 2024 UTC via an FALCON 9 launch vehicle from the Air Force Eastern Test Range (AFETR). Payload-class satellites include a variety of spacecraft equipped with specific instruments for various scientific and technological missions. These include communications satellites like Starlink; space stations such as the ISS; scientific satellites like the Hubble; Earth observation satellites from companies like Planet Labs, Umbra, and HawkEye 360; GPS; miniature CubeSats for education and research; and military/defense satellites.

Not visible in the next 10 days
Identifier
60727, 2024-152H
Orbit
LEO
Last TLE update
4 hours ago
Origin
Manufacturer
SpaceX/Seattle
Mission
Operational Commercial Communications
Bus & Motor
STARLINK V2M, Unknown motor
Mass
730 kg wet, ~700 kg dry
Launch date (UTC)
2024-08-28 (10 months ago)
Launch vehicle
FALCON 9
Launch site
Air Force Eastern Test Range (AFETR)
Object type
Payload
Rocket body
Debris
Shape & HBR
Box + 2 Pan, 29 m
Radar Cross Section
36.964 m², Large (>1 m²)

Expand to show TLE details & history

TLE from 4 hours ago
0 STARLINK-11080
1 60727U 24152H   25182.24350386 -.00000403  00000-0  15282-5 0  9996
2 60727  53.1595 275.7188 0000686  45.2737 314.8337 15.69710221 49475
Epoch: 2025-07-01T05:50Z
TLE epoch observation values (Epoch: 2025-07-01T05:50:38.733Z)
Latitude
Longitude
-91.48434°
Altitude
360.315 km
Speed
7.695 km/s
True Right ascension
18h 22m 52s
True Declination
0° 00' 00"
Sunlit
Object was in full shadow at epoch
Visualization orbit readout
Latitude
-53.05811°
Longitude
-174.55025°
Altitude
378.457 km
Speed
7.682 km/s
Apparent Right ascension
11h 07m 14s
Apparent Declination
-48° 56' 46"
Sunlit
Object is in full shadow
Visualization observer readout
Local Sidereal Time
21:42:20
Azimuth
232.036° WSW
Elevation
-72.445°
Doppler factor
1
Orbital elements
Apogee altitude
360.449 km
Perigee altitude
359.525 km
Semi-major axis
6,738.124 km
Eccentricity
0.00007
Inclination
53.1595°
RAAN
275.7188°
Arg. of periapsis
45.2737°
True anomaly
Unknown
Mean anomaly
314.8337°
Eccentric anomaly
Unknown
Mean motion
3.92405 °/min
Orbital period
91.74 mins
BSTAR
0.0000015282
Loading maneuver chart data...
Loading SW <> Apogee altitude chart data...
Loading historical data...
Loading historical data...
Loading historical data...
Loading historical data...
Loading historical data...
Loading historical data...
Loading historical data...

STARLINK-11080 Visibility

Observer location: undefined°, undefined°

STARLINK-11080 is likely not visible in the next few days
Span
Click to sort rows by Start time (UTC) header in descending order
Start Az.
Max El. time (UTC)
Max El. Az.
Max El.
End time (UTC)
End Az.
|